User: anonymous   Login
Location: Coffee Creek Observatory
(38.8077°N, 94.7179°W)
Time: 19:20:10
(UTC-05:00)
Language:

Lacrosse 4 Rocket - Orbit

View from above orbital plane
View from above orbital plane
View from above satellite
View from above satellite

Ground track
Ground track

The orbit data is extracted from the following two-line orbital elements,

1 26474U 00047B   15243.95394001 +.00000814 +00000-0 +83392-4 0  9992
2 26474 067.9934 213.6422 0061203 319.4098 040.2487 14.94643172817359
Epoch (UTC): 31 August 2015 22:53:40
Eccentricity: 0.0061203
inclination: 67.9934°
perigee height: 541 km
apogee height: 626 km
right ascension of ascending node: 213.6422°
argument of perigee: 319.4098°
revolutions per day: 14.94643172
mean anomaly at epoch: 40.2487°
orbit number at epoch: 81735

The dashed part of the orbit path shows where the satellite is in the earth's shadow,  

DLR